This is the latest recevied weather packets stored in our database for station/object WA4ORT. If no packets are shown the sender has not sent any weather packets the latest 10 day(s).
| Time | Temp. | Humidity | Pressure | Rain* | Wind** | Luminosity | Snow |
|---|---|---|---|---|---|---|---|
| 1788216268 | 31.67° C | - | - | 0 mm | 0.45 m/s, 10° | - | - |
| 1788216224 | 31.67° C | - | - | 0 mm | 0.45 m/s, 10° | - | - |
| 1788215330 | 32.22° C | - | - | 0 mm | 0 m/s | - | - |
| 1788214431 | 31.67° C | - | - | 0 mm | 0.89 m/s, 55° | - | - |
| 1788213538 | 32.22° C | - | - | 0 mm | 0.89 m/s, 18° | - | - |
| 1788212644 | 32.22° C | - | - | 0 mm | 0.89 m/s, 93° | - | - |
| 1788211746 | 32.78° C | - | - | 0 mm | 0 m/s | - | - |
| 1788210851 | 31.67° C | - | - | 0 mm | 2.24 m/s, 349° | - | - |
| 1788209957 | 32.22° C | - | - | 0 mm | 2.24 m/s, 342° | - | - |
| 1788209059 | 32.78° C | - | - | 0 mm | 0 m/s | - | - |
| 1788208165 | 32.22° C | - | - | 0 mm | 1.34 m/s, 7° | - | - |
| 1788207271 | 32.22° C | - | - | 0 mm | 1.79 m/s, 353° | - | - |
| 1788206373 | 31.67° C | - | - | 0 mm | 0.89 m/s, 38° | - | - |
| 1788205479 | 31.67° C | - | - | 0 mm | 0.45 m/s, 32° | - | - |
| 1788204584 | 31.67° C | - | - | 0 mm | 0.89 m/s, 308° | - | - |
| 1788203686 | 31.67° C | - | - | 0 mm | 0.89 m/s, 91° | - | - |
| 1788202791 | 31.67° C | - | - | 0 mm | 1.79 m/s, 7° | - | - |
| 1788201898 | 31.11° C | - | - | 0 mm | 1.79 m/s, 273° | - | - |
| 1788201063 | 31.11° C | - | - | 0 mm | 1.34 m/s, 326° | - | - |
| 1788201000 | 31.11° C | - | - | 0 mm | 1.34 m/s, 326° | - | - |
| 1788200106 | 30.56° C | - | - | 0 mm | 1.34 m/s, 0° | - | - |
| 1788199212 | 30.56° C | - | - | 0 mm | 0.45 m/s, 162° | - | - |
| 1788198313 | 30.56° C | - | - | 0 mm | 1.79 m/s, 359° | - | - |
| 1788197736 | 30° C | - | - | 0 mm | 1.34 m/s, 328° | - | - |
| 1788197419 | 30° C | - | - | 0 mm | 1.34 m/s, 328° | - | - |
* Rain latest hour (hover to see other rain measurements)
** Current wind speed in m/s (hover to see current wind gust speed)